Regional Weather Roundup
Issued by NWS Goodland, KS

Home | Current Version | Previous Version | Graphics & Text | Print | Product List | Glossary On
Versions: 1 2 3 4 5 6 7 8 9 10 11 12 13 14 15 16 17 18 19 20 21 22 23 24 25 26 27 28 29 30 31 32 33 34 35 36 37 38 39 40 41 42 43 44 45 46 47 48 49 50
000
ASUS43 KGLD 222208
RWRGLD

GOODLAND FORECAST AREA HOURLY WEATHER ROUNDUP
NATIONAL WEATHER SERVICE GOODLAND KS
400 PM MDT MON MAY 22 2017

...OFFICIAL OBSERVATIONS...

CITY           SKY/WX    TMP DP  RH WIND       PRES   REMARKS
GOODLAND KS    PTSUNNY   70  41  34 NW13      29.96F
HILL CITY KS   LGT RAIN  71  45  39 W8G24     29.92F
IMPERIAL NEB   CLOUDY    65  41  41 N15G24    29.98F
MCCOOK NEB     PTSUNNY   71  42  35 N20G29    29.93F
AKRON CO       RAIN      48  44  86 N18       30.10R FOG
BURLINGTON CO  MOSUNNY   67  38  34 NW10      30.00F
LIMON CO       SUNNY     64  34  32 N13G22    30.05F
$$

...UNOFFICIAL OBSERVATIONS...

CITY           SKY/WX    TMP DP  RH WIND       PRES   REMARKS
LENORA KS        N/A     73  32  22 MISG        N/A
NORTON KS      PTSUNNY   70  36  28 NW16G22   29.90F
SHARON SPRINGS   N/A     70  44  38 N10         N/A
TRENTON NEB      N/A     67  32  27 N10         N/A
KIT CARSON CO    N/A     68  38  33 MISG        N/A
YUMA CO        LGT RAIN  54  32  43 W6        30.03R
$$



USA.gov is the U.S. government's official web portal to all federal, state and local government web resources and services.